Regional Weather Roundup
Issued by NWS

Home | Current Version | Previous Version | Text Only | Print | Product List | Glossary Off
Versions: 1 2 3 4 5 6 7 8 9 10 11 12 13 14 15 16 17 18 19 20 21 22 23 24 25 26 27 28 29 30 31 32 33 34 35 36 37 38 39 40 41 42 43 44 45 46 47 48 49 50

173
ASUS45 KCYS 120510
RWRWY

WYOMING REGIONAL WEATHER ROUNDUP
NATIONAL WEATHER SERVICE CHEYENNE WY
1000 PM MST THU FEB 11 2016

NOTE:  "FAIR" INDICATES FEW OR NO CLOUDS BELOW 12,000 FEET
WITH NO SIGNIFICANT WEATHER AND/OR OBSTRUCTIONS TO VISIBILITY.

WYZ001-120600-
YELLOWSTONE NATIONAL PARK

CITY           SKY/WX    TMP DP  RH WIND       PRES   REMARKS
LK YELLOWSTONE   N/A     33  21  61 W8        30.37S WCI  26
W YELLOWSTONE  NOT AVBL

$$
WYZ002>013-054>058-071-098>099-120600-
NORTHERN WYOMING

CITY           SKY/WX    TMP DP  RH WIND       PRES   REMARKS
JACKSON        CLOUDY    36  25  64 CALM      30.35R
CODY           MOCLDY    41  18  38 CALM      30.24R
GREYBULL       CLOUDY    40  23  50 CALM      30.21S
WORLAND        CLOUDY    38  28  67 S5        30.22S WCI  34
SHERIDAN       MOCLDY    41  23  48 CALM      30.20F
BUFFALO        FAIR      35  24  64 W6        30.24R WCI  30
GILLETTE       FAIR      30  25  81 CALM      30.22R
HULETT         FAIR      34  32  93 CALM      30.23R
NEWCASTLE      FAIR      32  27  80 N8        30.22R WCI  25

$$
WYZ014>020-022>026-101>103-120600-
CENTRAL WYOMING

CITY           SKY/WX    TMP DP  RH WIND       PRES   REMARKS
BIG PINEY      FAIR      29  23  78 S3        30.36F
PINEDALE         N/A     27  21  80 W5        30.36F WCI  21
DUBOIS         FAIR      36  23  60 NW14      30.28S WCI  27
LANDER         FAIR      38  25  59 CALM      30.23F
RIVERTON       MOCLDY    36  24  62 E6        30.25F WCI  31
CASPER         FAIR      32  25  75 W10       30.24S WCI  24
DOUGLAS        FAIR      30  25  81 CALM      30.25S

$$
WYZ021-027>030-104>119-120600-
SOUTHERN WYOMING

CITY           SKY/WX    TMP DP  RH WIND       PRES   REMARKS
EVANSTON       MOCLDY    37  17  44 S8        30.38F WCI  31
KEMMERER       FAIR      32  18  55 NW8       30.38F WCI  25
FORT BRIDGER   CLEAR     41  18  38 SW20      30.39F
ROCK SPRINGS   FAIR      37  20  50 SW16      30.36F WCI  28
DIXON          FAIR      19  13  77 CALM      30.41S
RAWLINS        FAIR      34  21  59 W24       30.30S WCI  21
SARATOGA       FAIR      34  23  64 S9        30.34F WCI  26
LARAMIE        FAIR      32  22  66 W8        30.28S WCI  25
CHEYENNE       FAIR      35  24  64 NW5       30.26S WCI  31
TORRINGTON     FAIR      32  26  78 SW7       30.22S WCI  26
PINE BLUFFS    FAIR      36  27  69 NW9       30.26S WCI  29

$$




USA.gov is the U.S. government's official web portal to all federal, state and local government web resources and services.